Air Resources Laboratory banner image
Air Resources Laboratory web site National Oceanic and Atmospheric Administration (NOAA)

la roundup


Office: LIX

ASUS44 KLIX 211106
RWRLA
LOUISIANA WEATHER ROUNDUP
NATIONAL WEATHER SERVICE NEW ORLEANS LA
500 AM CST WED NOV 21 2018

NOTE: "FAIR" INDICATES FEW OR NO CLOUDS BELOW 12,000 FEET WITH NO
      SIGNIFICANT WEATHER AND/OR OBSTRUCTIONS TO VISIBILITY.
      SKY/WX - SKY CONDITION AND SIGNIFICANT WEATHER.
      TMP - AIR TEMPERATURE.    DP   - DEWPOINT TEMPERATURE.
      RH  - RELATIVE HUMIDITY.  PRES - PRESSURE.
      HX  - HEAT INDEX.         WCI  - WIND CHILL INDEX.

*  THESE STATIONS ARE NOT NWS OR FAA STATIONS AND ARE NOT UNDER
   NWS QUALITY CONTROL.

LAZ040-048-061>063-065-066-069-211200-
SOUTHEAST LOUISIANA

CITY           SKY/WX    TMP DP  RH WIND       PRES   REMARKS
N.O. INTL ARPT FAIR      49  44  83 NE6       30.29S
N.O. LAKEFRONT FAIR      49  42  77 NE15      30.30S
N.O. DOWNTOWN* FAIR      47  41  80 N5        30.30S
RESERVE*       FAIR      44  41  88 NE6       30.31R
SLIDELL        FAIR      37  35  92 N3        30.30R
BATON ROUGE    FAIR      40  38  93 N6        30.32R
BOOTHVILLE     FAIR      54  45  71 NE9       30.27R
BOGALUSA*      FAIR      38  36  92 CALM      30.31S
GALLIANO*      FAIR      43  39  88 N7        30.28S
NEW ROADS*     FAIR      39  37  93 NE5       30.32S
GONZALES*      FAIR      41  39  93 CALM      30.30S
HAMMOND*       FAIR      37  37 100 N3        30.31S
HOUMA*         FAIR      42  41  96 CALM      30.29R
PORT FOURCHON* SUNNY     54  48  82 NE10G16   30.27S

$$

LAZ041-044-053-054-211200-
SOUTHWEST LOUISIANA

CITY           SKY/WX    TMP DP  RH WIND       PRES   REMARKS
LAKE CHARLES   FAIR      42  40  92 NE6       30.32S
LAFAYETTE      FAIR      40  39  97 NE3       30.32S
PATTERSON      FAIR      43  42  97 N5        30.31R
SALT POINT       N/A    N/A N/A N/A VRB3      30.29R
NEW IBERIA     FAIR      42  39  89 N7        30.32S
CHENAULT AIRPK FAIR      41  40  95 N5        30.33S

$$

LAZ027-028-211200-
CENTRAL LOUISIANA

CITY           SKY/WX    TMP DP  RH WIND       PRES   REMARKS
FORT POLK      NOT AVBL
ALEXANDRIA INT FAIR      35  34  96 NW3       30.32F FOG
ALEXANDRIA     FAIR      33  33 100 CALM      30.33S FOG

$$

LAZ001-002-211200-
NORTHWEST LOUISIANA

CITY           SKY/WX    TMP DP  RH WIND       PRES   REMARKS
SHREVEPORT     PTCLDY    34  33  96 CALM      30.35R
BARKSDALE AFB  NOT AVBL
DTN SHREVEPORT CLEAR     34  32  92 CALM      30.36S FOG

$$

LAZ014-016-211200-
NORTHEAST LOUISIANA

CITY           SKY/WX    TMP DP  RH WIND       PRES   REMARKS
MONROE         FAIR      34  33  96 CALM      30.37R
TALLULAH       FAIR      37  35  92 CALM      30.35R FOG

$$



ASUS44 KLIX 211106
RWRLIX
NEW ORLEANS REGIONAL WEATHER ROUNDUP
NATIONAL WEATHER SERVICE NEW ORLEANS LA
500 AM CST WED NOV 21 2018

NOTE: "FAIR" INDICATES FEW OR NO CLOUDS BELOW 12,000 FEET WITH NO
      SIGNIFICANT WEATHER AND/OR OBSTRUCTIONS TO VISIBILITY.
      SKY/WX - SKY CONDITION AND SIGNIFICANT WEATHER.
      TMP - AIR TEMPERATURE.     DP    - DEWPOINT TEMPERATURE.
      RH  - RELATIVE HUMIDITY.   PRES  - PRESSURE.
      HI  - HEAT INDEX.          WCI   - WIND CHILL INDEX.

*  THESE STATIONS ARE NOT NWS OR FAA STATIONS AND ARE NOT UNDER
   NWS QUALITY CONTROL.

LAZ038-040-048-061>063-065>067-069-211200-
SOUTHEAST LOUISIANA

CITY           SKY/WX    TMP DP  RH WIND       PRES   REMARKS
N.O. INTL ARPT FAIR      49  44  83 NE6       30.29S
N.O. LAKEFRONT FAIR      49  42  77 NE15      30.30S
N.O. DOWNTOWN* FAIR      47  41  80 N5        30.30S
RESERVE*       FAIR      44  41  88 NE6       30.31R
SLIDELL        FAIR      37  35  92 N3        30.30R
BATON ROUGE    FAIR      40  38  93 N6        30.32R
BOOTHVILLE     FAIR      54  45  71 NE9       30.27R
BOGALUSA*      FAIR      38  36  92 CALM      30.31S
GALLIANO*      FAIR      43  39  88 N7        30.28S
NEW ROADS*     FAIR      39  37  93 NE5       30.32S
GONZALES*      FAIR      41  39  93 CALM      30.30S
HAMMOND*       FAIR      37  37 100 N3        30.31S
HOUMA*         FAIR      42  41  96 CALM      30.29R
PORT FOURCHON* SUNNY     54  48  82 NE10G16   30.27S

$$

MSZ070-080>082-211200-
SOUTHERN MISSISSIPPI

CITY           SKY/WX    TMP DP  RH WIND       PRES   REMARKS
MCCOMB         FAIR      40  36  86 N7        30.31R
GULFPORT       FAIR      40  38  93 NW3       30.30R
BILOXI         NOT AVBL
PASCAGOULA     FOG       37  34  89 CALM      30.30R VSB 3/4

$$

COASTAL OBSERVATIONS
LAKE AND NEARSHORE STATIONS

STATION/POSITION TIME  SKY/WX   TEMP    WIND        PRES    WAVE
                                AIR SEA DIR/SP/G            HT/PER
                 (UTC)          (F)     (DEG/KT/KT) (MB)    (FT/S)
WAVELAND YACHT   1048            45 57   10/  7/  8 1025.9
GRAND ISLE       1048            53 62   50/  9/ 14 1025.0
SOUTHWEST PASS   1048                    30/ 12/ 13   N/A
NEW CANAL        1048            50 57   50/ 13/ 15 1025.6
SHELL BEACH      1048            52 59   40/ 14/ 16 1025.4

OFFSHORE STATIONS

STATION/POSITION TIME  SKY/WX   TEMP    WIND        PRES    WAVE
                                AIR SEA DIR/SP/G            HT/PER
                 (UTC)          (F)     (DEG/KT/KT) (MB)    (FT/S)
64 S DAUPHIN ISL 1050               72   30/ 12/ 17 1024.3    3/ 5

$$



ASUS44 KLIX 211110
RWRLA
LOUISIANA WEATHER ROUNDUP
NATIONAL WEATHER SERVICE NEW ORLEANS LA
500 AM CST WED NOV 21 2018

NOTE: "FAIR" INDICATES FEW OR NO CLOUDS BELOW 12,000 FEET WITH NO
      SIGNIFICANT WEATHER AND/OR OBSTRUCTIONS TO VISIBILITY.
      SKY/WX - SKY CONDITION AND SIGNIFICANT WEATHER.
      TMP - AIR TEMPERATURE.    DP   - DEWPOINT TEMPERATURE.
      RH  - RELATIVE HUMIDITY.  PRES - PRESSURE.
      HX  - HEAT INDEX.         WCI  - WIND CHILL INDEX.

*  THESE STATIONS ARE NOT NWS OR FAA STATIONS AND ARE NOT UNDER
   NWS QUALITY CONTROL.

LAZ040-048-061>063-065-066-069-211200-
SOUTHEAST LOUISIANA

CITY           SKY/WX    TMP DP  RH WIND       PRES   REMARKS
N.O. INTL ARPT FAIR      49  44  83 NE6       30.29S
N.O. LAKEFRONT FAIR      49  42  77 NE15      30.30S
N.O. DOWNTOWN* FAIR      47  41  80 N5        30.30S
RESERVE*       FAIR      44  41  88 NE6       30.31R
SLIDELL        FAIR      37  35  92 N3        30.30R
BATON ROUGE    FAIR      40  38  93 N6        30.32R
BOOTHVILLE     FAIR      54  45  71 NE9       30.27R
BOGALUSA*      FAIR      38  36  92 CALM      30.31S
GALLIANO*      FAIR      43  39  88 N7        30.28S
NEW ROADS*     FAIR      39  37  93 NE5       30.32S
GONZALES*      FAIR      41  39  93 CALM      30.30S
HAMMOND*       FAIR      37  37 100 N3        30.31S
HOUMA*         FAIR      42  41  96 CALM      30.29R
PORT FOURCHON* SUNNY     54  48  82 NE10G16   30.27S

$$

LAZ041-044-053-054-211200-
SOUTHWEST LOUISIANA

CITY           SKY/WX    TMP DP  RH WIND       PRES   REMARKS
LAKE CHARLES   FAIR      42  40  92 NE6       30.32S
LAFAYETTE      FAIR      40  39  97 NE3       30.32S
PATTERSON      FAIR      43  42  97 N5        30.31R
SALT POINT       N/A    N/A N/A N/A VRB3      30.29R
NEW IBERIA     FAIR      42  39  89 N7        30.32S
CHENAULT AIRPK FAIR      41  40  95 N5        30.33S

$$

LAZ027-028-211200-
CENTRAL LOUISIANA

CITY           SKY/WX    TMP DP  RH WIND       PRES   REMARKS
FORT POLK      NOT AVBL
ALEXANDRIA INT FAIR      35  34  96 NW3       30.32F FOG
ALEXANDRIA     FAIR      33  33 100 CALM      30.33S FOG

$$

LAZ001-002-211200-
NORTHWEST LOUISIANA

CITY           SKY/WX    TMP DP  RH WIND       PRES   REMARKS
SHREVEPORT     PTCLDY    34  33  96 CALM      30.35R
BARKSDALE AFB  NOT AVBL
DTN SHREVEPORT CLEAR     34  32  92 CALM      30.36S FOG

$$

LAZ014-016-211200-
NORTHEAST LOUISIANA

CITY           SKY/WX    TMP DP  RH WIND       PRES   REMARKS
MONROE         FAIR      33  32  96 CALM      30.37R FOG
TALLULAH       FAIR      37  35  92 CALM      30.35R FOG

$$



ASUS44 KLIX 211110
RWRLIX
NEW ORLEANS REGIONAL WEATHER ROUNDUP
NATIONAL WEATHER SERVICE NEW ORLEANS LA
500 AM CST WED NOV 21 2018

NOTE: "FAIR" INDICATES FEW OR NO CLOUDS BELOW 12,000 FEET WITH NO
      SIGNIFICANT WEATHER AND/OR OBSTRUCTIONS TO VISIBILITY.
      SKY/WX - SKY CONDITION AND SIGNIFICANT WEATHER.
      TMP - AIR TEMPERATURE.     DP    - DEWPOINT TEMPERATURE.
      RH  - RELATIVE HUMIDITY.   PRES  - PRESSURE.
      HI  - HEAT INDEX.          WCI   - WIND CHILL INDEX.

*  THESE STATIONS ARE NOT NWS OR FAA STATIONS AND ARE NOT UNDER
   NWS QUALITY CONTROL.

LAZ038-040-048-061>063-065>067-069-211200-
SOUTHEAST LOUISIANA

CITY           SKY/WX    TMP DP  RH WIND       PRES   REMARKS
N.O. INTL ARPT FAIR      49  44  83 NE6       30.29S
N.O. LAKEFRONT FAIR      49  42  77 NE15      30.30S
N.O. DOWNTOWN* FAIR      47  41  80 N5        30.30S
RESERVE*       FAIR      44  41  88 NE6       30.31R
SLIDELL        FAIR      37  35  92 N3        30.30R
BATON ROUGE    FAIR      40  38  93 N6        30.32R
BOOTHVILLE     FAIR      54  45  71 NE9       30.27R
BOGALUSA*      FAIR      38  36  92 CALM      30.31S
GALLIANO*      FAIR      43  39  88 N7        30.28S
NEW ROADS*     FAIR      39  37  93 NE5       30.32S
GONZALES*      FAIR      41  39  93 CALM      30.30S
HAMMOND*       FAIR      37  37 100 N3        30.31S
HOUMA*         FAIR      42  41  96 CALM      30.29R
PORT FOURCHON* SUNNY     54  48  82 NE10G16   30.27S

$$

MSZ070-080>082-211200-
SOUTHERN MISSISSIPPI

CITY           SKY/WX    TMP DP  RH WIND       PRES   REMARKS
MCCOMB         FAIR      40  36  86 N7        30.31R
GULFPORT       FAIR      40  38  93 NW3       30.30R
BILOXI         NOT AVBL
PASCAGOULA     FAIR      37  34  89 CALM      30.29S FOG

$$

COASTAL OBSERVATIONS
LAKE AND NEARSHORE STATIONS

STATION/POSITION TIME  SKY/WX   TEMP    WIND        PRES    WAVE
                                AIR SEA DIR/SP/G            HT/PER
                 (UTC)          (F)     (DEG/KT/KT) (MB)    (FT/S)
WAVELAND YACHT   1048            45 57   10/  7/  8 1025.9
GRAND ISLE       1048            53 62   50/  9/ 14 1025.0
SOUTHWEST PASS   1048                    30/ 12/ 13   N/A
NEW CANAL        1048            50 57   50/ 13/ 15 1025.6
SHELL BEACH      1048            52 59   40/ 14/ 16 1025.4

OFFSHORE STATIONS

STATION/POSITION TIME  SKY/WX   TEMP    WIND        PRES    WAVE
                                AIR SEA DIR/SP/G            HT/PER
                 (UTC)          (F)     (DEG/KT/KT) (MB)    (FT/S)
64 S DAUPHIN ISL 1050               72   30/ 12/ 17 1024.3    3/ 5

$$





Office: LCH ASUS44 KLCH 211110 RWRLCH REGIONAL WEATHER ROUNDUP NATIONAL WEATHER SERVICE LAKE CHARLES LA 500 AM CST WED NOV 21 2018 Note: "fair" indicates few or no clouds below 12,000 feet with no significant weather and/or obstructions to visibility. ACROSS SOUTHEAST TEXAS CITY SKY/WX TMP DP RH WIND PRES REMARKS BEAUMONT FAIR 45 41 86 NE8 30.31F BEAUMONT CITY NOT AVBL ORANGE N/A N/A N/A N/A MISG N/A JASPER N/A 32 32 100 CALM 30.36S $$ ACROSS CENTRAL LOUISIANA CITY SKY/WX TMP DP RH WIND PRES REMARKS LEESVILLE NOT AVBL FULLERTON FAIR 37 36 96 CALM 30.31S FOG ALEXANDRIA INT FAIR 35 34 96 NW3 30.32F FOG ESLER FIELD FAIR 33 33 100 CALM 30.33S FOG DERIDDER FAIR 39 38 96 CALM 30.35R OAKDALE FAIR 34 33 95 CALM 30.34R FOG OPELOUSAS NOT AVBL $$ ACROSS SOUTHWEST AND SOUTH CENTRAL LOUISIANA CITY SKY/WX TMP DP RH WIND PRES REMARKS DEQUINCY FAIR 39 37 94 CALM 30.33S SULPHUR FAIR 45 41 85 NE5 30.33S LAKE CHARLES FAIR 42 40 92 NE6 30.32S CHENNAULT INT FAIR 41 40 95 N5 30.33S CAMERON PHI SUNNY 45 45 100 NE6 30.30S GRAND CHENIER NOT AVBL JENNINGS FAIR 41 40 94 CALM 30.33R LAFAYETTE FAIR 40 39 97 NE3 30.32S NEW IBERIA FAIR 42 39 89 N7 30.32S ABBEVILLE FAIR 39 39 100 CALM 30.32R PATTERSON FAIR 43 42 97 N5 30.31R SALT POINT N/A N/A N/A N/A VRB3 30.29R $$ SELECTED SITES ACROSS THE REGION CITY SKY/WX TMP DP RH WIND PRES REMARKS HOUSTON BUSH MOCLDY 42 41 96 CALM 30.31F HOUSTON HOBBY MOCLDY 46 41 82 NE9 30.29F GALVESTON FAIR 50 47 89 NE12 30.29F COLLEGE STAT CLOUDY 43 39 86 NE6 30.32F CONROE PTCLDY 35 35 100 CALM 30.33F HUNTSVILLE CLOUDY 35 35 100 CALM 30.33S LUFKIN CLOUDY 34 34 100 CALM 30.34S SHREVEPORT PTCLDY 34 33 96 CALM 30.35R MONROE FAIR 33 32 96 CALM 30.37R FOG NATCHEZ MS FAIR 33 32 96 N3 30.34S BATON ROUGE FAIR 40 38 93 N6 30.32R N.O. INTL ARPT FAIR 49 44 83 NE6 30.29S SLIDELL FAIR 37 35 92 N3 30.30R $$ MARINE REPORTS STATION/POSITION TIME SKY/WX TEMP WIND PRES VSBY AIR SEA DIR/SP/G (UTC) (F) (DEG/KT/KT) (MB) (MI) BUOY 30 S HIGH I 1050 57 66 60/ 16/ 19 1025.8F WVE H/P(F/S)= 3/ 4 SEA RIM ST PARK 1100 45 40/ 6/ 7 1026.9R PORT ARTHUR 1048 46 59 40/ 3/ 6 1026.7F SABINE PASS N 1048 47 61 30/ 6/ 8 1028.1S TEXAS POINT NOT AVBL CALCASIEU PASS 1048 45 57 60/ 5/ 6 1025.3R LK CHARLES BEACH 1048 43 58 1026.6R MARSH ISLAND 1000 50 N/A FRESH WATER LOCK 1048 45 58 10/ 7/ 10 1025.9F AMERADA PASS 1048 45 53 350/ 2/ 5 1025.8R $$